Regional Weather Roundup
Issued by NWS Sioux Falls, SD

Home | Current Version | Previous Version | Text Only | Print | Product List | Glossary On
Versions: 1 2 3 4 5 6 7 8 9 10 11 12 13 14 15 16 17 18 19 20 21 22 23 24 25 26 27 28 29 30 31 32 33 34 35 36 37 38 39 40 41 42 43 44 45 46 47 48 49 50
000
ASUS43 KFSD 270310
RWRFSD

WEATHER ROUNDUP FOR SE SOUTH DAKOTA/SW MINNESOTA/NW IOWA
NATIONAL WEATHER SERVICE SIOUX FALLS SD
1000 PM CDT MON SEP 26 2016

NOTE: "FAIR" INDICATES FEW OR NO CLOUDS BELOW 12,000 FEET WITH NO
SIGNIFICANT WEATHER AND OR OBSTRUCTIONS TO VISIBILITY.


SDZ038>040-050-052>070-270400-
SOUTHEAST SOUTH DAKOTA

CITY           SKY/WX    TMP DP  RH WIND       PRES   REMARKS
BROOKINGS      CLEAR     50  34  54 NW7       30.03S
CHAMBERLAIN    CLEAR     60  42  52 N6        30.10S
HURON          CLEAR     48  34  58 W8        30.06S
MADISON        FAIR      48  32  53 NW8       30.05S
MITCHELL       CLEAR     55  38  52 W7        30.07S
SIOUX FALLS    CLEAR     54  37  52 W8        30.04S
WINNER         FAIR      54  42  64 W6        30.13R
YANKTON        CLEAR     52  43  71 W8        30.06S
$$

MNZ071-072-080-081-089-090-097-098-270400-
SOUTHWEST MINNESOTA

CITY           SKY/WX    TMP DP  RH WIND       PRES   REMARKS
FAIRMONT       CLEAR     55  36  48 W10       29.98S
JACKSON        CLEAR     52  32  46 W7        30.01S
LUVERNE        CLEAR     50  34  53 NW7       30.04S
MARSHALL       CLEAR     53  37  54 W12       30.00S
MONTEVIDEO     CLEAR     54  36  50 NW6       29.99S
PIPESTONE      CLEAR     52  32  46 W6        30.03F
REDWOOD FALLS  CLEAR     54  36  50 W12       29.96S
TRACY          CLEAR     54  38  55 W7        30.00F
WINDOM         CLEAR     48  37  66 W8        30.00S
WORTHINGTON    CLEAR     50  36  58 W10       30.03S
$$

IAZ001>003-012>014-020>022-031-032-NEZ013-014-SDZ071-270400-
NORTHWEST IOWA

CITY           SKY/WX    TMP DP  RH WIND       PRES   REMARKS
CHEROKEE       CLEAR     52  42  69 W3        30.04S
DENISON        CLEAR     50  46  87 CALM      30.04F
ESTHERVILLE    CLEAR     45  38  76 W8        30.00S
LE MARS        CLEAR     54  45  71 CALM      30.06S
ORANGE CITY    CLEAR     54  43  66 CALM      30.05S
SHELDON        CLEAR     50  39  66 W7        30.02S
SIOUX CITY     CLEAR     58  45  62 W6        30.06S
SPENCER        CLEAR     49  37  63 W7        30.03R
STORM LAKE     CLEAR     54  43  66 W9        30.05R
$$

ABBREVIATIONS USED IN REMARKS
   TC - TEMPERATURE IN CELSIUS
  WCI - WIND CHILL INDEX
   HX - HEAT INDEX
  VSB - VISIBILITY





USA.gov is the U.S. government's official web portal to all federal, state and local government web resources and services.